Chievres, Belgium

11:40 PM CET on January 19, 2018 (GMT +0100)
Chievres Air Base

Weather History for EBCV - December, 2013

Change the Weather History Date:

Tuesday, December 17, 2013

  Actual Average Record
Temperature  
Mean Temperature 44 °F -  
Max Temperature 46 °F 40 °F 60 °F (2015)
Min Temperature 41 °F 35 °F 24 °F (2010)
Degree Days  
Heating Degree Days 22    
Moisture  
Dew Point 37 °F    
Average Humidity 73    
Maximum Humidity 93    
Minimum Humidity 53    
Precipitation  
Precipitation 0.00 in - - ()
Sea Level Pressure  
Sea Level Pressure 30.21 in    
Wind  
Wind Speed 9 mph ()    
Max Wind Speed 14 mph    
Max Gust Speed -    
Visibility 9.3 miles    
Events      
Averages and records for this station are not official NWS values.
T = Trace of Precipitation, MM = Missing Value Source: Averaged Metar Reports

Daily Weather History Graph

Daily Weather History Graph

Search for Another Location

Airport or City:

Trip Planner

Search our weather history database for the weather conditions in past years. The results will help you decide how hot, cold, wet, or windy it might be!

Date:

Astronomy

Dec. 17, 2013 Rise Set
Actual Time 8:40 AM CET 4:40 PM CET
Civil Twilight 8:01 AM CET 5:19 PM CET
Nautical Twilight 7:19 AM CET 6:02 PM CET
Astronomical Twilight 6:39 AM CET 6:42 PM CET
Moon 5:14 PM CET (12/17) 8:18 AM CET (12/17)
Length of Visible Light 9h 18m
Length of Day
7h 59m
Full, 100% of the Moon is Illuminated
Dec 17
Full
Dec 25
Last Quarter
Jan 1
New
Jan 8
First Quarter
Jan 16
Full

Hourly Weather History & Observations

Time (CET) Temp. Windchill Dew Point Humidity Pressure Visibility Wind Dir Wind Speed Gust Speed Precip Events Conditions
12:00 AM 47 °F - 36 °F 56% 30.22 in 22 mi South 11.2 mph - -  
12:25 AM 44.6 °F 39.2 °F 35.6 °F 71% 30.21 in 6.2 mi South 10.4 mph - N/A   Unknown
1:00 AM 43 °F - 35 °F 65% 30.22 in 28 mi South 8.9 mph - -  
1:25 AM 42.8 °F 37.0 °F 33.8 °F 70% 30.18 in 6.2 mi South 10.4 mph - N/A   Unknown
2:25 AM 44.6 °F 38.8 °F 33.8 °F 66% 30.18 in 6.2 mi South 11.5 mph - N/A   Unknown
3:00 AM 45 °F - 33 °F 53% 30.19 in 31 mi South 13.4 mph - -  
3:25 AM 42.8 °F 35.8 °F 33.8 °F 70% 30.18 in 6.2 mi South 13.8 mph - N/A   Unknown
4:00 AM 43 °F - 34 °F 60% 30.19 in 28 mi South 13.4 mph - -  
4:25 AM 42.8 °F 36.2 °F 33.8 °F 70% 30.18 in 6.2 mi South 12.7 mph - N/A   Unknown
5:00 AM 41 °F - 35 °F 71% 30.20 in 19 mi South 11.2 mph - -  
5:25 AM 42.8 °F 36.6 °F 35.6 °F 76% 30.18 in 6.2 mi South 11.5 mph - N/A   Unknown
6:25 AM 42.8 °F 36.2 °F 35.6 °F 76% 30.18 in 6.2 mi SSW 12.7 mph - N/A   Unknown
7:00 AM 43 °F - 36 °F 69% 30.20 in 19 mi SSW 11.2 mph - -   Partly Cloudy
7:25 AM 44.6 °F 39.7 °F 35.6 °F 71% 30.21 in 6.2 mi SW 9.2 mph - N/A   Mostly Cloudy
8:00 AM 43 °F - 36 °F 68% 30.22 in 19 mi SSW 11.2 mph - -   Mostly Cloudy
8:25 AM 44.6 °F 39.2 °F 37.4 °F 76% 30.21 in 6.2 mi SW 10.4 mph - N/A   Mostly Cloudy
8:55 AM 42.8 °F 37.0 °F 37.4 °F 81% 30.21 in 6.2 mi SSW 10.4 mph - N/A   Mostly Cloudy
9:00 AM 43 °F - 37 °F 71% 30.24 in 14 mi SW 8.9 mph - -   Partly Cloudy
9:25 AM 44.6 °F 39.2 °F 37.4 °F 76% 30.24 in 6.2 mi SSW 10.4 mph - N/A   Overcast
10:00 AM 44 °F - 37 °F 68% 30.26 in 17 mi SSW 11.2 mph - -   Partly Cloudy
10:14 AM 44.6 °F 39.2 °F 37.4 °F 76% 30.24 in 6.2 mi SSW 10.4 mph - N/A   Overcast
10:25 AM 44.6 °F 40.2 °F 37.4 °F 76% 30.24 in 6.2 mi SSW 8.1 mph - N/A   Mostly Cloudy
10:40 AM 44.6 °F 39.7 °F 37.4 °F 76% 30.24 in 6.2 mi SSW 9.2 mph - N/A   Mostly Cloudy
11:00 AM 44 °F - 38 °F 72% 30.27 in 14 mi SW 6.7 mph - -   Mostly Cloudy
11:25 AM 44.6 °F 40.7 °F 37.4 °F 76% 30.24 in 6.2 mi SSW 6.9 mph - N/A   Overcast
12:00 PM 45 °F - 37 °F 66% 30.27 in 15 mi SW 11.2 mph - -   Partly Cloudy
12:25 PM 44.6 °F 38.8 °F 37.4 °F 76% 30.24 in 6.2 mi SSW 11.5 mph - N/A   Overcast
1:00 PM 45 °F - 38 °F 67% 30.26 in 14 mi SSW 11.2 mph - -   Mostly Cloudy
1:25 PM 44.6 °F 39.7 °F 39.2 °F 81% 30.24 in 6.2 mi SSW 9.2 mph - N/A   Overcast
2:00 PM 46 °F - 39 °F 68% 30.24 in 11 mi SSW 6.7 mph - -   Mostly Cloudy
2:25 PM 46.4 °F 42.9 °F 39.2 °F 76% 30.21 in 6.2 mi SSW 6.9 mph - N/A   Overcast
3:00 PM 46 °F - 39 °F 70% 30.23 in 12 mi SW 4.5 mph - -   Mostly Cloudy
3:25 PM 46.4 °F 45.2 °F 41.0 °F 81% 30.21 in 6.2 mi South 3.5 mph - N/A   Overcast
4:00 PM 44 °F - 40 °F 81% 30.23 in 11 mi 2.2 mph - -   Scattered Clouds
4:05 PM 44.6 °F 43.1 °F 39.2 °F 81% 30.21 in 6.2 mi SSW 3.5 mph - N/A   Partly Cloudy
4:25 PM 44.6 °F - 39.2 °F 81% 30.21 in 6.2 mi Variable 2.3 mph - N/A   Scattered Clouds
5:00 PM 43 °F - 39 °F 80% 30.22 in 9 mi 2.2 mph - -   Mostly Cloudy
5:25 PM 41.0 °F - 39.2 °F 93% 30.21 in 6.2 mi Variable 2.3 mph - N/A   Mostly Cloudy
6:00 PM 43 °F - 38 °F 75% 30.21 in 11 mi 2.2 mph - -   Mostly Cloudy
6:25 PM 41.0 °F 38.0 °F 37.4 °F 87% 30.18 in 6.2 mi SE 4.6 mph - N/A   Mostly Cloudy
7:00 PM 41 °F - 38 °F 83% 30.20 in 7 mi ESE 4.5 mph - -   Mostly Cloudy
7:25 PM 42.8 °F 39.3 °F 37.4 °F 81% 30.18 in 6.2 mi SSE 5.8 mph - N/A   Mostly Cloudy
8:25 PM 42.8 °F 39.3 °F 37.4 °F 81% 30.18 in 6.2 mi South 5.8 mph - N/A   Mostly Cloudy
9:00 PM 44 °F - 37 °F 67% 30.17 in 19 mi South 11.2 mph - -   Mostly Cloudy
9:25 PM 44.6 °F 39.2 °F 37.4 °F 76% 30.15 in 6.2 mi South 10.4 mph - N/A   Mostly Cloudy
10:00 PM 44 °F - 36 °F 66% 30.17 in 17 mi South 11.2 mph - -   Scattered Clouds
10:25 PM 44.6 °F 39.7 °F 35.6 °F 71% 30.15 in 6.2 mi South 9.2 mph - N/A   Mostly Cloudy
11:00 PM 44 °F - 36 °F 66% 30.15 in 19 mi South 11.2 mph - -   Scattered Clouds
11:24 PM 44.6 °F 39.2 °F 37.4 °F 76% 30.12 in 6.2 mi South 10.4 mph - N/A   Mostly Cloudy
11:25 PM 44.6 °F 39.2 °F 37.4 °F 76% 30.12 in 6.2 mi South 10.4 mph - N/A   Mostly Cloudy